Pueblo, CO

10:53 PM MST on February 11, 2016 (GMT -0700)
Pueblo Memorial

Weather History for KPUB - May, 2014

Change the Weather History Date:

Wednesday, May 14, 2014

  Actual Average Record
Temperature  
Mean Temperature 47 °F 60 °F  
Max Temperature 64 °F 76 °F 95 °F (1996)
Min Temperature 29 °F 44 °F 29 °F (2014)
Degree Days  
Heating Degree Days 18 6  
Month to date heating degree days 132 107  
Since 1 July heating degree days 5389 5547  
Cooling Degree Days 0 1  
Month to date cooling degree days 7 5  
Year to date cooling degree days 9 7  
Moisture  
Dew Point 25 °F    
Average Humidity 45    
Maximum Humidity 75    
Minimum Humidity 14    
Precipitation  
Precipitation T in 0.05 in 0.81 in (2005)
Month to date precipitation 0.24 0.70  
Year to date precipitation 3.79 3.68  
Snow  
Snow 0.00 in 0.00 in T in (1912)
Month to date snowfall T 0.5  
Since 1 July snowfall 29.3 31.8  
Snow Depth 0.00 in    
Sea Level Pressure  
Sea Level Pressure 30.34 in    
Wind  
Wind Speed 9 mph (NW)    
Max Wind Speed 33 mph    
Max Gust Speed 38 mph    
Visibility 10 miles    
Events      
T = Trace of Precipitation, MM = Missing Value Source: NWS Daily Summary

Daily Weather History Graph

Daily Weather History Graph

Search for Another Location

Airport or City:

Trip Planner

Search our weather history database for the weather conditions in past years. The results will help you decide how hot, cold, wet, or windy it might be!

Date:

Astronomy

May. 14, 2014 Rise Set
Actual Time 5:47 AM MDT 8:01 PM MDT
Civil Twilight 5:18 AM MDT 8:31 PM MDT
Nautical Twilight 4:41 AM MDT 9:07 PM MDT
Astronomical Twilight 4:02 AM MDT 9:47 PM MDT
Moon 8:09 PM MDT (5/14) 5:47 AM MDT (5/14)
Length of Visible Light 15h 12m
Length of Day
14h 13m
Full, 100% of the Moon is Illuminated
May 14
Full
May 14
Full
May 21
Last Quarter
May 28
New
Jun 5
First Quarter

Hourly Weather History & Observations

Time (MDT) Temp. Windchill Dew Point Humidity Pressure Visibility Wind Dir Wind Speed Gust Speed Precip Events Conditions
12:53 AM 37.0 °F 33.3 °F 28.0 °F 70% 30.46 in 10.0 mi West 4.6 mph - N/A   Clear
1:53 AM 36.0 °F 29.6 °F 28.0 °F 73% 30.45 in 10.0 mi West 8.1 mph - N/A   Clear
2:53 AM 37.4 °F 30.3 °F 28.4 °F 70% 30.44 in 10.0 mi WNW 10.4 mph - N/A   Clear
3:53 AM 35.1 °F - 28.0 °F 76% 30.42 in 10.0 mi Calm Calm - N/A   Clear
4:53 AM 33.1 °F 30.0 °F 26.1 °F 75% 30.41 in 10.0 mi NW 3.5 mph - N/A   Clear
5:53 AM 30.0 °F 23.2 °F 23.0 °F 75% 30.42 in 10.0 mi WNW 6.9 mph - N/A   Clear
6:53 AM 34.0 °F 31.0 °F 25.0 °F 70% 30.41 in 10.0 mi West 3.5 mph - N/A   Clear
7:53 AM 44.1 °F 39.5 °F 24.1 °F 45% 30.39 in 10.0 mi West 8.1 mph - N/A   Clear
9:53 AM 55.0 °F - 18.0 °F 23% 30.35 in 10.0 mi Variable 5.8 mph - N/A   Clear
10:53 AM 55.9 °F - 17.1 °F 22% 30.34 in 10.0 mi WNW 13.8 mph 25.3 mph N/A   Partly Cloudy
11:53 AM 57.9 °F - 16.0 °F 19% 30.32 in 10.0 mi WNW 10.4 mph - N/A   Mostly Cloudy
12:53 PM 60.1 °F - 17.1 °F 19% 30.30 in 10.0 mi West 9.2 mph - N/A   Mostly Cloudy
1:53 PM 62.1 °F - 14.0 °F 15% 30.27 in 10.0 mi North 9.2 mph - N/A   Partly Cloudy
2:53 PM 62.6 °F - 17.6 °F 18% 30.31 in 10.0 mi North 23.0 mph 29.9 mph N/A   Overcast
3:53 PM 61.0 °F - 21.0 °F 21% 30.26 in 10.0 mi WSW 9.2 mph - N/A   Mostly Cloudy
4:53 PM 61.0 °F - 23.0 °F 23% 30.25 in 10.0 mi NE 8.1 mph - N/A   Clear
5:53 PM 55.9 °F - 28.9 °F 36% 30.30 in 10.0 mi NNE 29.9 mph 35.7 mph N/A   Overcast
6:06 PM 54.0 °F - 32.0 °F 43% 30.31 in 10.0 mi NNE 31.1 mph 38.0 mph N/A   Overcast
6:53 PM 55.0 °F - 28.0 °F 35% 30.28 in 10.0 mi NE 4.6 mph - N/A   Partly Cloudy
7:53 PM 54.0 °F - 30.9 °F 41% 30.28 in 10.0 mi NE 4.6 mph - 0.00 in   Mostly Cloudy
8:53 PM 50.0 °F - 32.0 °F 50% 30.27 in 10.0 mi ESE 5.8 mph - N/A   Partly Cloudy
9:53 PM 46.9 °F - 32.0 °F 56% 30.28 in 10.0 mi North 4.6 mph - N/A   Partly Cloudy
10:53 PM 48.0 °F - 33.1 °F 56% 30.28 in 10.0 mi West 6.9 mph - N/A   Overcast
11:53 PM 48.9 °F - 32.0 °F 52% 30.27 in 10.0 mi NNE 5.8 mph - N/A   Mostly Cloudy